Time,TemperatureF,DewpointF,PressureIn,WindDirection,WindDirectionDegrees,WindSpeedMPH,WindSpeedGustMPH,Humidity,HourlyPrecipIn,Conditions,Clouds,dailyrainin,SoftwareType,DateUTC
2013-01-06 00:03:00,40.3,37.4,30.12,North,0,1.3,1.7,90,0.00,,,0.00,,2013-01-05 23:03:00,
2013-01-06 00:08:00,40.6,37.8,30.12,East,90,1.3,2.6,90,0.00,,,0.00,,2013-01-05 23:08:00,
2013-01-06 00:13:00,40.6,37.8,30.12,East,90,1.3,0.0,90,0.00,,,0.00,,2013-01-05 23:13:00,
2013-01-06 00:18:00,40.6,38.1,30.12,NE,45,0.4,0.0,91,0.00,,,0.00,,2013-01-05 23:18:00,
2013-01-06 00:23:00,40.3,37.8,30.12,ENE,67,0.8,1.3,91,0.00,,,0.00,,2013-01-05 23:23:00,
2013-01-06 00:28:00,40.1,37.4,30.12,NE,45,1.3,1.7,90,0.00,,,0.00,,2013-01-05 23:28:00,
2013-01-06 00:33:00,39.9,37.2,30.12,East,90,0.8,0.0,90,0.00,,,0.00,,2013-01-05 23:33:00,
2013-01-06 00:38:00,39.7,37.0,30.12,East,90,0.0,0.0,90,0.00,,,0.00,,2013-01-05 23:38:00,
2013-01-06 00:43:00,39.7,37.0,30.12,NE,45,0.0,0.0,90,0.00,,,0.00,,2013-01-05 23:43:00,
2013-01-06 00:48:00,39.7,37.0,30.12,East,90,0.0,0.0,90,0.00,,,0.00,,2013-01-05 23:48:00,
2013-01-06 00:53:00,39.6,36.9,30.12,East,90,0.8,0.0,90,0.00,,,0.00,,2013-01-05 23:53:00,
2013-01-06 00:58:00,39.9,37.8,30.12,East,90,0.4,0.8,92,0.00,,,0.00,,2013-01-05 23:58:00,
2013-01-06 01:03:00,39.6,37.4,30.12,East,90,0.8,0.8,92,0.00,,,0.00,,2013-01-06 00:03:00,
2013-01-06 01:08:00,39.7,37.6,30.12,NE,45,0.8,1.3,92,0.00,,,0.00,,2013-01-06 00:08:00,
2013-01-06 01:13:00,39.6,37.4,30.12,East,90,0.4,1.3,92,0.00,,,0.00,,2013-01-06 00:13:00,
2013-01-06 01:18:00,39.4,37.2,30.12,ENE,67,1.3,1.3,92,0.00,,,0.00,,2013-01-06 00:18:00,
2013-01-06 01:23:00,39.6,37.4,30.12,East,90,0.0,0.0,92,0.00,,,0.00,,2013-01-06 00:23:00,
2013-01-06 01:28:00,39.0,37.0,30.12,South,180,0.4,1.7,93,0.00,,,0.00,,2013-01-06 00:28:00,
2013-01-06 01:33:00,38.8,36.9,30.12,NE,45,0.8,1.3,93,0.00,,,0.00,,2013-01-06 00:33:00,
2013-01-06 01:38:00,38.7,36.7,30.12,East,90,0.0,2.6,93,0.00,,,0.00,,2013-01-06 00:38:00,
2013-01-06 01:43:00,38.7,36.7,30.12,East,90,0.0,0.8,93,0.00,,,0.00,,2013-01-06 00:43:00,
2013-01-06 01:48:00,38.5,36.5,30.12,East,90,0.4,0.0,93,0.00,,,0.00,,2013-01-06 00:48:00,
2013-01-06 01:53:00,38.3,36.3,30.12,East,90,0.0,0.0,93,0.00,,,0.00,,2013-01-06 00:53:00,
2013-01-06 01:58:00,38.3,36.3,30.12,NE,45,0.0,0.0,93,0.00,,,0.00,,2013-01-06 00:58:00,
2013-01-06 02:03:00,38.1,36.1,30.12,NE,45,0.8,0.0,93,0.00,,,0.00,,2013-01-06 01:03:00,
2013-01-06 02:08:00,38.3,36.3,30.12,East,90,0.0,1.7,93,0.00,,,0.00,,2013-01-06 01:08:00,
2013-01-06 02:13:00,50.7,42.6,30.12,NE,45,0.4,0.0,74,0.00,,,0.00,,2013-01-06 01:13:00,
2013-01-06 02:18:00,50.7,42.6,30.12,North,0,0.0,0.0,74,0.00,,,0.00,,2013-01-06 01:18:00,
2013-01-06 02:23:00,50.7,42.6,30.12,East,90,1.7,1.7,74,0.00,,,0.00,,2013-01-06 01:23:00,
2013-01-06 02:28:00,50.7,42.6,30.15,East,90,0.0,0.0,74,0.00,,,0.00,,2013-01-06 01:28:00,
2013-01-06 02:33:00,50.7,42.6,30.15,East,90,0.0,0.0,74,0.00,,,0.00,,2013-01-06 01:33:00,
2013-01-06 02:38:00,50.7,42.6,30.15,East,90,0.4,0.0,74,0.00,,,0.00,,2013-01-06 01:38:00,
2013-01-06 02:43:00,50.7,42.6,30.15,East,90,0.4,0.0,74,0.00,,,0.00,,2013-01-06 01:43:00,
2013-01-06 02:48:00,50.7,42.6,30.15,South,180,0.0,0.0,74,0.00,,,0.00,,2013-01-06 01:48:00,
2013-01-06 02:53:00,50.7,42.6,30.15,South,180,0.0,0.4,74,0.00,,,0.00,,2013-01-06 01:53:00,
2013-01-06 02:58:00,50.7,42.6,30.15,North,0,0.0,0.4,74,0.00,,,0.00,,2013-01-06 01:58:00,
2013-01-06 03:03:00,50.7,42.6,30.15,East,90,0.0,0.0,74,0.00,,,0.00,,2013-01-06 02:03:00,
2013-01-06 03:08:00,50.7,42.6,30.15,East,90,0.0,0.0,74,0.00,,,0.00,,2013-01-06 02:08:00,
2013-01-06 03:13:00,40.6,33.3,30.15,East,90,0.0,0.8,75,0.00,,,0.00,,2013-01-06 02:13:00,
2013-01-06 03:18:00,40.6,33.3,30.15,NE,45,2.2,2.2,75,0.00,,,0.00,,2013-01-06 02:18:00,
2013-01-06 03:23:00,40.6,33.3,30.15,ENE,67,1.7,3.1,75,0.00,,,0.00,,2013-01-06 02:23:00,
2013-01-06 03:28:00,40.6,33.3,30.15,East,90,0.8,1.7,75,0.00,,,0.00,,2013-01-06 02:28:00,
2013-01-06 03:33:00,40.8,33.4,30.15,East,90,0.0,0.0,75,0.00,,,0.00,,2013-01-06 02:33:00,
2013-01-06 03:38:00,40.8,33.4,30.15,East,90,0.0,0.0,75,0.00,,,0.00,,2013-01-06 02:38:00,
2013-01-06 03:43:00,37.0,36.0,30.15,East,90,0.4,1.7,96,0.00,,,0.00,,2013-01-06 02:43:00,
2013-01-06 03:48:00,37.4,36.3,30.15,East,90,0.4,1.7,96,0.00,,,0.00,,2013-01-06 02:48:00,
2013-01-06 03:53:00,37.6,36.5,30.15,East,90,1.7,2.6,96,0.00,,,0.00,,2013-01-06 02:53:00,
2013-01-06 03:58:00,37.6,36.5,30.15,South,180,2.2,4.4,96,0.00,,,0.00,,2013-01-06 02:58:00,
2013-01-06 04:03:00,37.8,36.7,30.15,ESE,112,2.2,2.6,96,0.00,,,0.00,,2013-01-06 03:03:00,
2013-01-06 04:08:00,37.6,36.7,30.15,SE,135,1.7,4.0,97,0.00,,,0.00,,2013-01-06 03:08:00,
2013-01-06 04:13:00,37.6,36.7,30.15,South,180,1.7,4.9,97,0.00,,,0.00,,2013-01-06 03:13:00,
2013-01-06 04:18:00,37.8,36.9,30.15,SE,135,2.2,2.2,97,0.00,,,0.00,,2013-01-06 03:18:00,
2013-01-06 04:23:00,37.8,36.9,30.15,South,180,1.3,1.3,97,0.00,,,0.00,,2013-01-06 03:23:00,
2013-01-06 04:28:00,37.8,36.7,30.15,SE,135,1.3,1.3,96,0.00,,,0.00,,2013-01-06 03:28:00,
2013-01-06 04:33:00,37.9,37.0,30.15,East,90,1.7,1.7,97,0.00,,,0.00,,2013-01-06 03:33:00,
2013-01-06 04:38:00,37.9,37.0,30.15,East,90,0.4,0.0,97,0.00,,,0.00,,2013-01-06 03:38:00,
2013-01-06 04:43:00,37.4,36.3,30.15,NE,45,0.4,0.8,96,0.00,,,0.00,,2013-01-06 03:43:00,
2013-01-06 04:48:00,37.4,36.3,30.15,ENE,67,1.3,1.7,96,0.00,,,0.00,,2013-01-06 03:48:00,
2013-01-06 04:53:00,37.6,36.7,30.15,East,90,0.8,0.8,97,0.00,,,0.00,,2013-01-06 03:53:00,
2013-01-06 04:58:00,37.4,36.3,30.15,NE,45,1.7,2.6,96,0.00,,,0.00,,2013-01-06 03:58:00,
2013-01-06 05:03:00,37.4,36.5,30.15,East,90,1.7,3.1,97,0.00,,,0.00,,2013-01-06 04:03:00,
2013-01-06 05:08:00,37.4,36.5,30.15,North,0,0.4,1.7,97,0.00,,,0.00,,2013-01-06 04:08:00,
2013-01-06 05:13:00,37.4,36.5,30.15,NE,45,0.8,1.3,97,0.00,,,0.00,,2013-01-06 04:13:00,
2013-01-06 05:18:00,37.8,36.7,30.15,East,90,3.1,4.9,96,0.00,,,0.00,,2013-01-06 04:18:00,
2013-01-06 05:23:00,37.8,36.9,30.15,East,90,1.3,3.1,97,0.00,,,0.00,,2013-01-06 04:23:00,
2013-01-06 05:28:00,37.4,36.5,30.15,East,90,0.4,4.4,97,0.00,,,0.00,,2013-01-06 04:28:00,
2013-01-06 05:33:00,37.2,36.1,30.15,East,90,1.3,4.0,96,0.00,,,0.00,,2013-01-06 04:33:00,
2013-01-06 05:38:00,36.9,35.8,30.15,ENE,67,1.7,2.2,96,0.00,,,0.00,,2013-01-06 04:38:00,
2013-01-06 05:43:00,36.5,35.4,30.15,NNW,337,0.4,2.6,96,0.00,,,0.00,,2013-01-06 04:43:00,
2013-01-06 05:48:00,36.3,35.2,30.15,North,0,0.4,0.8,96,0.00,,,0.00,,2013-01-06 04:48:00,
2013-01-06 05:53:00,36.3,35.2,30.15,East,90,0.4,2.2,96,0.00,,,0.00,,2013-01-06 04:53:00,
2013-01-06 05:58:00,36.1,35.1,30.15,East,90,0.4,2.2,96,0.00,,,0.00,,2013-01-06 04:58:00,
2013-01-06 06:03:00,36.1,35.1,30.15,East,90,0.0,0.0,96,0.00,,,0.00,,2013-01-06 05:03:00,
2013-01-06 06:08:00,36.0,34.9,30.15,East,90,0.0,0.0,96,0.00,,,0.00,,2013-01-06 05:08:00,
2013-01-06 06:13:00,36.3,35.2,30.15,NE,45,0.8,1.3,96,0.00,,,0.00,,2013-01-06 05:13:00,
2013-01-06 06:18:00,36.7,35.6,30.15,East,90,0.8,1.7,96,0.00,,,0.00,,2013-01-06 05:18:00,
2013-01-06 06:23:00,36.7,35.6,30.15,South,180,0.4,1.7,96,0.00,,,0.00,,2013-01-06 05:23:00,
2013-01-06 06:28:00,36.9,35.8,30.15,East,90,0.4,1.7,96,0.00,,,0.00,,2013-01-06 05:28:00,
2013-01-06 06:33:00,36.7,35.8,30.15,ENE,67,0.8,1.3,97,0.00,,,0.00,,2013-01-06 05:33:00,
2013-01-06 06:38:00,36.7,35.8,30.15,East,90,0.8,0.0,97,0.00,,,0.00,,2013-01-06 05:38:00,
2013-01-06 06:43:00,36.5,35.6,30.15,ESE,112,0.0,0.0,97,0.00,,,0.00,,2013-01-06 05:43:00,
2013-01-06 06:48:00,36.5,35.6,30.15,East,90,0.0,0.0,97,0.00,,,0.00,,2013-01-06 05:48:00,
2013-01-06 06:53:00,36.7,35.8,30.15,NE,45,0.8,1.3,97,0.00,,,0.00,,2013-01-06 05:53:00,
2013-01-06 06:58:00,36.5,35.6,30.15,NE,45,0.4,2.2,97,0.00,,,0.00,,2013-01-06 05:58:00,
2013-01-06 07:03:00,36.5,35.6,30.15,NE,45,1.3,1.7,97,0.00,,,0.00,,2013-01-06 06:03:00,
2013-01-06 07:08:00,36.5,35.6,30.17,NE,45,0.4,1.7,97,0.00,,,0.00,,2013-01-06 06:08:00,
2013-01-06 07:13:00,36.3,35.4,30.17,East,90,0.0,0.0,97,0.00,,,0.00,,2013-01-06 06:13:00,
2013-01-06 07:18:00,36.5,35.4,30.17,South,180,0.4,1.7,96,0.00,,,0.00,,2013-01-06 06:18:00,
2013-01-06 07:23:00,36.5,35.6,30.17,South,180,0.4,1.7,97,0.00,,,0.00,,2013-01-06 06:23:00,
2013-01-06 07:28:00,36.3,35.4,30.17,SE,135,0.4,1.3,97,0.00,,,0.00,,2013-01-06 06:28:00,
2013-01-06 07:33:00,36.5,35.6,30.17,NE,45,0.4,0.8,97,0.00,,,0.00,,2013-01-06 06:33:00,
2013-01-06 07:38:00,36.7,35.8,30.17,SE,135,0.8,0.8,97,0.00,,,0.00,,2013-01-06 06:38:00,
2013-01-06 07:43:00,36.5,35.6,30.17,East,90,0.4,0.8,97,0.00,,,0.00,,2013-01-06 06:43:00,
2013-01-06 07:48:00,36.5,35.6,30.17,East,90,0.0,0.8,97,0.00,,,0.00,,2013-01-06 06:48:00,
2013-01-06 07:53:00,36.5,36.0,30.17,East,90,0.4,0.4,98,0.00,,,0.00,,2013-01-06 06:53:00,
2013-01-06 07:58:00,36.5,36.0,30.20,NE,45,0.0,1.3,98,0.00,,,0.00,,2013-01-06 06:58:00,
2013-01-06 08:03:00,36.5,36.0,30.20,SE,135,0.4,0.8,98,0.00,,,0.00,,2013-01-06 07:03:00,
2013-01-06 08:08:00,37.0,36.7,30.20,SE,135,1.3,2.2,99,0.00,,,0.00,,2013-01-06 07:08:00,
2013-01-06 08:13:00,37.0,36.7,30.20,South,180,0.4,0.0,99,0.00,,,0.00,,2013-01-06 07:13:00,
2013-01-06 08:22:00,38.8,38.5,30.20,SE,135,0.8,3.5,99,0.00,,,0.00,,2013-01-06 07:22:00,
2013-01-06 08:32:00,40.1,39.7,30.20,East,90,0.4,1.3,99,0.00,,,0.00,,2013-01-06 07:32:00,
2013-01-06 08:37:00,40.6,39.6,30.20,East,90,0.8,1.3,96,0.00,,,0.00,,2013-01-06 07:37:00,
2013-01-06 08:42:00,40.6,39.6,30.20,South,180,0.8,0.8,96,0.00,,,0.00,,2013-01-06 07:42:00,
2013-01-06 08:47:00,41.7,36.1,30.20,SE,135,1.7,1.7,81,0.00,,,0.00,,2013-01-06 07:47:00,
2013-01-06 08:52:00,41.9,35.1,30.20,East,90,0.4,0.0,77,0.00,,,0.00,,2013-01-06 07:52:00,
2013-01-06 08:57:00,43.0,34.5,30.20,East,90,0.4,1.7,72,0.00,,,0.00,,2013-01-06 07:57:00,
2013-01-06 09:02:00,43.0,34.5,30.20,East,90,0.4,1.7,72,0.00,,,0.00,,2013-01-06 08:02:00,
2013-01-06 09:07:00,43.3,33.1,30.20,East,90,1.7,2.6,67,0.00,,,0.00,,2013-01-06 08:07:00,
2013-01-06 09:12:00,43.2,32.5,30.20,East,90,1.3,3.5,66,0.00,,,0.00,,2013-01-06 08:12:00,
2013-01-06 09:22:00,45.1,33.3,30.20,East,90,0.8,3.5,63,0.00,,,0.00,,2013-01-06 08:22:00,
2013-01-06 09:32:00,46.8,33.4,30.20,East,90,0.4,2.2,60,0.00,,,0.00,,2013-01-06 08:32:00,
2013-01-06 09:37:00,47.3,33.6,30.20,ESE,112,1.3,0.0,59,0.00,,,0.00,,2013-01-06 08:37:00,
2013-01-06 09:47:00,48.4,33.3,30.20,East,90,0.8,2.2,56,0.00,,,0.00,,2013-01-06 08:47:00,
2013-01-06 09:57:00,49.3,33.6,30.20,East,90,1.7,2.2,55,0.00,,,0.00,,2013-01-06 08:57:00,
2013-01-06 10:03:00,49.3,33.6,30.20,East,90,1.7,2.2,55,0.00,,,0.00,,2013-01-06 09:03:00,
2013-01-06 10:08:00,50.2,34.2,30.23,East,90,1.7,3.1,54,0.00,,,0.00,,2013-01-06 09:08:00,
2013-01-06 10:18:00,51.8,34.2,30.23,SE,135,0.8,1.7,51,0.00,,,0.00,,2013-01-06 09:18:00,
2013-01-06 10:23:00,54.1,35.8,30.23,SE,135,0.4,2.6,50,0.00,,,0.00,,2013-01-06 09:23:00,
2013-01-06 10:28:00,52.9,34.2,30.23,East,90,1.3,2.6,49,0.00,,,0.00,,2013-01-06 09:28:00,
2013-01-06 10:33:00,54.0,35.1,30.23,East,90,0.4,0.0,49,0.00,,,0.00,,2013-01-06 09:33:00,
2013-01-06 10:38:00,55.2,35.2,30.20,East,90,1.3,1.7,47,0.00,,,0.00,,2013-01-06 09:38:00,
2013-01-06 10:43:00,56.5,35.8,30.20,West,270,0.0,0.0,46,0.00,,,0.00,,2013-01-06 09:43:00,
2013-01-06 10:48:00,57.4,35.6,30.20,East,90,1.7,2.2,44,0.00,,,0.00,,2013-01-06 09:48:00,
2013-01-06 10:53:00,57.4,34.3,30.20,East,90,0.8,2.6,42,0.00,,,0.00,,2013-01-06 09:53:00,
2013-01-06 10:58:00,56.7,34.3,30.20,ENE,67,1.3,2.6,43,0.00,,,0.00,,2013-01-06 09:58:00,
2013-01-06 11:03:00,57.7,34.7,30.20,ENE,67,1.3,3.1,42,0.00,,,0.00,,2013-01-06 10:03:00,
2013-01-06 11:08:00,57.9,34.2,30.20,East,90,2.6,2.6,41,0.00,,,0.00,,2013-01-06 10:08:00,
2013-01-06 11:13:00,55.2,33.6,30.20,SE,135,2.6,3.5,44,0.00,,,0.00,,2013-01-06 10:13:00,
2013-01-06 11:22:00,56.7,35.4,30.20,NE,45,0.8,0.8,45,0.00,,,0.00,,2013-01-06 10:22:00,
2013-01-06 11:27:00,59.0,36.5,30.20,East,90,1.3,2.2,43,0.00,,,0.00,,2013-01-06 10:27:00,
2013-01-06 11:32:00,59.0,35.2,30.20,SE,135,1.7,3.1,41,0.00,,,0.00,,2013-01-06 10:32:00,
2013-01-06 11:37:00,58.1,33.8,30.20,SE,135,0.8,0.8,40,0.00,,,0.00,,2013-01-06 10:37:00,
2013-01-06 11:42:00,61.5,36.1,30.20,NW,315,0.4,0.8,39,0.00,,,0.00,,2013-01-06 10:42:00,
2013-01-06 11:47:00,61.0,34.3,30.20,ENE,67,1.3,1.7,37,0.00,,,0.00,,2013-01-06 10:47:00,
2013-01-06 11:52:00,60.3,35.1,30.20,SE,135,0.8,3.5,39,0.00,,,0.00,,2013-01-06 10:52:00,
2013-01-06 11:57:00,61.0,35.1,30.20,SE,135,1.7,3.1,38,0.00,,,0.00,,2013-01-06 10:57:00,
2013-01-06 12:02:00,62.2,35.6,30.20,East,90,1.3,2.2,37,0.00,,,0.00,,2013-01-06 11:02:00,
2013-01-06 12:07:00,61.7,34.3,30.17,East,90,0.8,2.2,36,0.00,,,0.00,,2013-01-06 11:07:00,
2013-01-06 12:12:00,61.7,34.3,30.17,SE,135,1.7,1.7,36,0.00,,,0.00,,2013-01-06 11:12:00,
2013-01-06 12:17:00,65.5,37.0,30.17,North,0,0.0,0.0,35,0.00,,,0.00,,2013-01-06 11:17:00,
2013-01-06 12:22:00,64.9,35.8,30.17,West,270,0.8,0.0,34,0.00,,,0.00,,2013-01-06 11:22:00,
2013-01-06 12:27:00,64.8,34.9,30.17,West,270,1.3,1.7,33,0.00,,,0.00,,2013-01-06 11:27:00,
2013-01-06 12:32:00,63.3,34.3,30.17,NW,315,0.8,1.3,34,0.00,,,0.00,,2013-01-06 11:32:00,
2013-01-06 12:37:00,66.7,36.7,30.17,North,0,0.0,0.0,33,0.00,,,0.00,,2013-01-06 11:37:00,
2013-01-06 12:42:00,67.8,36.0,30.17,NE,45,1.3,1.7,31,0.00,,,0.00,,2013-01-06 11:42:00,
2013-01-06 12:47:00,66.6,35.6,30.17,North,0,0.8,1.7,32,0.00,,,0.00,,2013-01-06 11:47:00,
2013-01-06 12:52:00,67.3,35.4,30.17,NE,45,2.2,2.6,31,0.00,,,0.00,,2013-01-06 11:52:00,
2013-01-06 12:57:00,66.9,35.2,30.17,NE,45,1.7,2.6,31,0.00,,,0.00,,2013-01-06 11:57:00,
2013-01-06 13:02:00,66.7,35.1,30.17,North,0,1.3,2.2,31,0.00,,,0.00,,2013-01-06 12:02:00,
2013-01-06 13:07:00,67.1,35.4,30.15,NW,315,0.4,0.0,31,0.00,,,0.00,,2013-01-06 12:07:00,
2013-01-06 13:12:00,67.1,35.4,30.15,West,270,1.7,1.7,31,0.00,,,0.00,,2013-01-06 12:12:00,
2013-01-06 13:17:00,66.4,34.7,30.15,NW,315,0.8,0.0,31,0.00,,,0.00,,2013-01-06 12:17:00,
2013-01-06 13:22:00,66.6,35.6,30.15,NW,315,1.7,2.2,32,0.00,,,0.00,,2013-01-06 12:22:00,
2013-01-06 13:27:00,66.6,35.6,30.15,North,0,0.8,1.3,32,0.00,,,0.00,,2013-01-06 12:27:00,
2013-01-06 13:32:00,66.6,35.6,30.15,East,90,1.7,2.2,32,0.00,,,0.00,,2013-01-06 12:32:00,
2013-01-06 13:37:00,66.4,35.6,30.15,North,0,2.2,3.1,32,0.00,,,0.00,,2013-01-06 12:37:00,
2013-01-06 13:42:00,66.7,36.7,30.15,NE,45,1.3,1.7,33,0.00,,,0.00,,2013-01-06 12:42:00,
2013-01-06 13:47:00,68.0,37.8,30.15,North,0,1.7,0.0,33,0.00,,,0.00,,2013-01-06 12:47:00,
2013-01-06 13:52:00,68.0,36.9,30.15,NNE,22,0.8,3.1,32,0.00,,,0.00,,2013-01-06 12:52:00,
2013-01-06 13:57:00,67.6,37.4,30.15,North,0,1.3,1.3,33,0.00,,,0.00,,2013-01-06 12:57:00,
2013-01-06 14:02:00,68.2,37.0,30.15,North,0,1.3,1.7,32,0.00,,,0.00,,2013-01-06 13:02:00,
2013-01-06 14:07:00,65.5,35.4,30.15,West,270,3.1,3.1,33,0.00,,,0.00,,2013-01-06 13:07:00,
2013-01-06 14:12:00,65.1,36.0,30.15,West,270,2.6,2.6,34,0.00,,,0.00,,2013-01-06 13:12:00,
2013-01-06 14:17:00,66.0,36.7,30.15,North,0,1.7,2.6,34,0.00,,,0.00,,2013-01-06 13:17:00,
2013-01-06 14:22:00,65.5,37.0,30.15,NW,315,1.7,2.6,35,0.00,,,0.00,,2013-01-06 13:22:00,
2013-01-06 14:27:00,65.1,36.7,30.12,NW,315,2.6,2.6,35,0.00,,,0.00,,2013-01-06 13:27:00,
2013-01-06 14:32:00,66.9,39.0,30.12,NW,315,0.8,2.6,36,0.00,,,0.00,,2013-01-06 13:32:00,
2013-01-06 14:37:00,67.3,39.4,30.12,West,270,0.8,1.3,36,0.00,,,0.00,,2013-01-06 13:37:00,
2013-01-06 14:42:00,66.4,38.5,30.12,NW,315,1.7,2.2,36,0.00,,,0.00,,2013-01-06 13:42:00,
2013-01-06 14:47:00,65.8,38.7,30.12,NNE,22,2.2,2.6,37,0.00,,,0.00,,2013-01-06 13:47:00,
2013-01-06 14:52:00,65.3,39.6,30.12,NW,315,2.6,2.6,39,0.00,,,0.00,,2013-01-06 13:52:00,
2013-01-06 14:57:00,63.3,41.0,30.12,NW,315,4.4,5.3,44,0.00,,,0.00,,2013-01-06 13:57:00,
2013-01-06 15:02:00,63.3,42.1,30.12,NW,315,3.5,5.3,46,0.00,,,0.00,,2013-01-06 14:02:00,
2013-01-06 15:07:00,63.7,43.5,30.15,WNW,292,3.1,4.0,48,0.00,,,0.00,,2013-01-06 14:07:00,
2013-01-06 15:12:00,62.8,43.2,30.15,NW,315,3.1,4.4,49,0.00,,,0.00,,2013-01-06 14:12:00,
2013-01-06 15:17:00,62.4,43.0,30.12,NW,315,4.0,4.4,49,0.00,,,0.00,,2013-01-06 14:17:00,
2013-01-06 15:22:00,62.4,43.0,30.12,North,0,1.7,1.7,49,0.00,,,0.00,,2013-01-06 14:22:00,
2013-01-06 15:27:00,63.1,44.1,30.15,NW,315,3.5,4.0,50,0.00,,,0.00,,2013-01-06 14:27:00,
2013-01-06 15:32:00,62.4,43.9,30.15,NW,315,4.0,4.9,51,0.00,,,0.00,,2013-01-06 14:32:00,
2013-01-06 15:37:00,62.2,43.7,30.12,West,270,3.5,4.4,51,0.00,,,0.00,,2013-01-06 14:37:00,
2013-01-06 15:42:00,62.6,44.6,30.12,NW,315,2.6,2.6,52,0.00,,,0.00,,2013-01-06 14:42:00,
2013-01-06 15:47:00,61.3,43.5,30.12,NW,315,1.7,1.7,52,0.00,,,0.00,,2013-01-06 14:47:00,
2013-01-06 15:52:00,59.9,43.2,30.12,West,270,3.5,3.5,54,0.00,,,0.00,,2013-01-06 14:52:00,
2013-01-06 15:57:00,59.4,43.5,30.12,NW,315,2.2,2.6,56,0.00,,,0.00,,2013-01-06 14:57:00,
2013-01-06 16:02:00,58.1,43.3,30.12,NW,315,3.5,4.9,58,0.00,,,0.00,,2013-01-06 15:02:00,
2013-01-06 16:12:00,56.7,44.1,30.12,West,270,2.6,4.9,63,0.00,,,0.00,,2013-01-06 15:12:00,
2013-01-06 16:18:00,56.1,44.4,30.12,NW,315,2.6,3.1,65,0.00,,,0.00,,2013-01-06 15:18:00,
2013-01-06 16:28:00,55.4,44.1,30.12,West,270,3.1,3.1,66,0.00,,,0.00,,2013-01-06 15:28:00,
2013-01-06 16:33:00,54.9,44.4,30.12,NW,315,2.6,3.1,68,0.00,,,0.00,,2013-01-06 15:33:00,
2013-01-06 16:38:00,54.9,44.8,30.12,NW,315,2.2,2.6,69,0.00,,,0.00,,2013-01-06 15:38:00,
2013-01-06 16:43:00,54.9,45.1,30.12,NW,315,2.2,2.6,70,0.00,,,0.00,,2013-01-06 15:43:00,
2013-01-06 16:48:00,54.7,45.0,30.12,NW,315,3.1,4.0,70,0.00,,,0.00,,2013-01-06 15:48:00,
2013-01-06 16:53:00,54.0,44.6,30.12,NW,315,3.1,4.4,71,0.00,,,0.00,,2013-01-06 15:53:00,
2013-01-06 16:58:00,53.6,45.1,30.12,NW,315,3.1,3.1,73,0.00,,,0.00,,2013-01-06 15:58:00,
2013-01-06 17:03:00,53.6,45.1,30.12,NW,315,3.1,3.1,73,0.00,,,0.00,,2013-01-06 16:03:00,
2013-01-06 17:08:00,53.4,45.0,30.12,NW,315,2.6,4.4,73,0.00,,,0.00,,2013-01-06 16:08:00,
2013-01-06 17:13:00,53.4,45.0,30.12,West,270,2.6,4.0,73,0.00,,,0.00,,2013-01-06 16:13:00,
2013-01-06 17:18:00,53.4,45.0,30.12,NW,315,2.2,2.6,73,0.00,,,0.00,,2013-01-06 16:18:00,
2013-01-06 17:23:00,52.5,44.4,30.12,NW,315,3.5,3.5,74,0.00,,,0.00,,2013-01-06 16:23:00,
2013-01-06 17:28:00,52.2,44.1,30.12,NW,315,1.7,2.2,74,0.00,,,0.00,,2013-01-06 16:28:00,
2013-01-06 17:33:00,52.0,44.2,30.12,West,270,1.3,1.7,75,0.00,,,0.00,,2013-01-06 16:33:00,
2013-01-06 17:38:00,51.6,43.9,30.12,NW,315,0.4,1.3,75,0.00,,,0.00,,2013-01-06 16:38:00,
2013-01-06 17:43:00,51.3,43.5,30.12,NW,315,0.8,1.3,75,0.00,,,0.00,,2013-01-06 16:43:00,
2013-01-06 17:48:00,51.1,43.7,30.12,NW,315,0.4,1.3,76,0.00,,,0.00,,2013-01-06 16:48:00,
2013-01-06 17:53:00,50.9,43.5,30.12,NW,315,0.4,1.3,76,0.00,,,0.00,,2013-01-06 16:53:00,
2013-01-06 17:58:00,50.7,43.7,30.12,West,270,0.8,2.2,77,0.00,,,0.00,,2013-01-06 16:58:00,
2013-01-06 18:03:00,50.7,44.1,30.12,West,270,2.2,2.6,78,0.00,,,0.00,,2013-01-06 17:03:00,
2013-01-06 18:08:00,51.1,44.8,30.12,West,270,1.7,3.5,79,0.00,,,0.00,,2013-01-06 17:08:00,
2013-01-06 18:13:00,50.9,44.6,30.12,West,270,1.3,2.2,79,0.00,,,0.00,,2013-01-06 17:13:00,
2013-01-06 18:18:00,50.9,44.2,30.12,West,270,1.7,2.2,78,0.00,,,0.00,,2013-01-06 17:18:00,
2013-01-06 18:23:00,50.7,43.7,30.12,West,270,1.7,2.2,77,0.00,,,0.00,,2013-01-06 17:23:00,
2013-01-06 18:28:00,50.7,43.7,30.12,West,270,1.7,2.2,77,0.00,,,0.00,,2013-01-06 17:28:00,
2013-01-06 18:33:00,50.5,43.5,30.12,NW,315,1.7,1.7,77,0.00,,,0.00,,2013-01-06 17:33:00,
2013-01-06 18:38:00,50.7,43.7,30.12,NW,315,2.2,2.6,77,0.00,,,0.00,,2013-01-06 17:38:00,
2013-01-06 18:43:00,50.5,43.5,30.12,West,270,2.2,2.6,77,0.00,,,0.00,,2013-01-06 17:43:00,
2013-01-06 18:48:00,50.4,43.3,30.12,West,270,0.4,1.3,77,0.00,,,0.00,,2013-01-06 17:48:00,
2013-01-06 18:53:00,50.0,43.7,30.12,South,180,0.4,0.0,79,0.00,,,0.00,,2013-01-06 17:53:00,
2013-01-06 18:58:00,50.2,43.5,30.12,SW,225,1.7,0.0,78,0.00,,,0.00,,2013-01-06 17:58:00,
2013-01-06 19:03:00,49.5,43.2,30.12,SW,225,0.0,0.0,79,0.00,,,0.00,,2013-01-06 18:03:00,
2013-01-06 19:08:00,49.3,43.0,30.12,South,180,0.0,0.0,79,0.00,,,0.00,,2013-01-06 18:08:00,
2013-01-06 19:13:00,49.3,43.0,30.12,South,180,0.0,0.0,79,0.00,,,0.00,,2013-01-06 18:13:00,
2013-01-06 19:18:00,48.9,43.5,30.12,South,180,0.0,0.8,82,0.00,,,0.00,,2013-01-06 18:18:00,
2013-01-06 19:23:00,48.9,43.5,30.12,South,180,0.4,0.8,82,0.00,,,0.00,,2013-01-06 18:23:00,
2013-01-06 19:28:00,48.6,43.2,30.12,South,180,0.4,0.0,82,0.00,,,0.00,,2013-01-06 18:28:00,
2013-01-06 19:33:00,48.4,43.3,30.12,South,180,0.0,0.0,83,0.00,,,0.00,,2013-01-06 18:33:00,
2013-01-06 19:38:00,48.6,43.5,30.09,SSW,202,0.4,0.8,83,0.00,,,0.00,,2013-01-06 18:38:00,
2013-01-06 19:43:00,48.6,43.5,30.09,South,180,0.4,0.0,83,0.00,,,0.00,,2013-01-06 18:43:00,
2013-01-06 19:48:00,48.4,43.3,30.09,West,270,0.0,2.2,83,0.00,,,0.00,,2013-01-06 18:48:00,
2013-01-06 19:58:00,48.0,43.0,30.12,West,270,0.0,0.0,83,0.00,,,0.00,,2013-01-06 18:58:00,
2013-01-06 20:03:00,47.8,42.8,30.12,West,270,0.0,0.0,83,0.00,,,0.00,,2013-01-06 19:03:00,
2013-01-06 20:08:00,47.5,42.4,30.12,West,270,0.0,0.0,83,0.00,,,0.00,,2013-01-06 19:08:00,
2013-01-06 20:13:00,47.3,42.3,30.12,South,180,0.0,0.0,83,0.00,,,0.00,,2013-01-06 19:13:00,
2013-01-06 20:18:00,47.1,42.1,30.12,South,180,0.0,0.0,83,0.00,,,0.00,,2013-01-06 19:18:00,
2013-01-06 20:23:00,46.9,41.9,30.12,South,180,0.0,0.0,83,0.00,,,0.00,,2013-01-06 19:23:00,
2013-01-06 20:28:00,46.9,42.3,30.12,South,180,0.4,0.8,84,0.00,,,0.00,,2013-01-06 19:28:00,
2013-01-06 20:38:00,47.7,43.5,30.09,South,180,0.8,2.2,86,0.00,,,0.00,,2013-01-06 19:38:00,
2013-01-06 20:48:00,47.8,43.7,30.09,South,180,0.8,1.7,86,0.00,,,0.00,,2013-01-06 19:48:00,
2013-01-06 20:53:00,47.7,43.5,30.09,South,180,0.4,0.0,86,0.00,,,0.00,,2013-01-06 19:53:00,
2013-01-06 21:03:00,47.7,43.3,30.09,South,180,0.4,1.3,85,0.00,,,0.00,,2013-01-06 20:03:00,
2013-01-06 21:13:00,47.3,42.6,30.09,NW,315,0.8,0.0,84,0.00,,,0.00,,2013-01-06 20:13:00,
2013-01-06 21:23:00,46.8,42.1,30.09,North,0,1.7,1.7,84,0.00,,,0.00,,2013-01-06 20:23:00,
2013-01-06 21:28:00,46.4,42.1,30.09,NW,315,0.8,0.0,85,0.00,,,0.00,,2013-01-06 20:28:00,
2013-01-06 21:33:00,46.8,42.4,30.09,South,180,0.4,0.8,85,0.00,,,0.00,,2013-01-06 20:33:00,
2013-01-06 21:38:00,47.3,43.2,30.09,South,180,1.3,2.2,86,0.00,,,0.00,,2013-01-06 20:38:00,
2013-01-06 21:43:00,47.3,43.2,30.09,South,180,0.8,1.3,86,0.00,,,0.00,,2013-01-06 20:43:00,
2013-01-06 21:48:00,47.3,43.2,30.09,WSW,247,0.4,1.7,86,0.00,,,0.00,,2013-01-06 20:48:00,
2013-01-06 21:52:00,47.3,43.5,30.09,SW,225,0.8,1.3,87,0.00,,,0.00,,2013-01-06 20:52:00,
2013-01-06 22:03:00,47.8,44.1,30.09,South,180,0.0,0.0,87,0.00,,,0.00,,2013-01-06 21:03:00,
2013-01-06 22:10:00,48.0,43.9,30.09,South,180,0.8,1.3,86,0.00,,,0.00,,2013-01-06 21:10:00,
2013-01-06 22:15:00,48.0,43.9,30.09,South,180,0.0,0.0,86,0.00,,,0.00,,2013-01-06 21:15:00,
2013-01-06 22:20:00,48.2,44.1,30.09,South,180,0.8,1.3,86,0.00,,,0.00,,2013-01-06 21:20:00,
2013-01-06 22:25:00,48.4,44.2,30.09,SE,135,1.3,1.7,86,0.00,,,0.00,,2013-01-06 21:25:00,
2013-01-06 22:30:00,48.4,43.7,30.09,East,90,1.3,2.6,84,0.00,,,0.00,,2013-01-06 21:30:00,
2013-01-06 22:35:00,48.2,43.2,30.09,East,90,2.2,3.1,83,0.00,,,0.00,,2013-01-06 21:35:00,
2013-01-06 22:40:00,48.0,43.0,30.09,SE,135,1.3,1.7,83,0.00,,,0.00,,2013-01-06 21:40:00,
2013-01-06 22:45:00,48.0,43.0,30.09,SE,135,1.3,1.3,83,0.00,,,0.00,,2013-01-06 21:45:00,
2013-01-06 22:50:00,48.2,43.2,30.09,SE,135,0.4,0.0,83,0.00,,,0.00,,2013-01-06 21:50:00,
2013-01-06 22:55:00,48.2,43.2,30.09,East,90,1.3,1.3,83,0.00,,,0.00,,2013-01-06 21:55:00,
2013-01-06 23:00:00,48.0,43.0,30.09,South,180,0.0,0.0,83,0.00,,,0.00,,2013-01-06 22:00:00,
2013-01-06 23:05:00,48.0,43.0,30.09,South,180,0.0,0.0,83,0.00,,,0.00,,2013-01-06 22:05:00,
2013-01-06 23:10:00,48.2,43.2,30.09,South,180,0.0,0.0,83,0.00,,,0.00,,2013-01-06 22:10:00,
2013-01-06 23:15:00,48.2,43.2,30.09,South,180,0.0,0.0,83,0.00,,,0.00,,2013-01-06 22:15:00,
2013-01-06 23:20:00,48.4,43.3,30.09,South,180,0.0,0.0,83,0.00,,,0.00,,2013-01-06 22:20:00,
2013-01-06 23:25:00,48.4,43.3,30.09,South,180,0.0,0.0,83,0.00,,,0.00,,2013-01-06 22:25:00,
2013-01-06 23:30:00,48.4,43.3,30.09,South,180,0.0,0.0,83,0.00,,,0.00,,2013-01-06 22:30:00,
2013-01-06 23:35:00,48.4,43.0,30.09,East,90,0.4,1.3,82,0.00,,,0.00,,2013-01-06 22:35:00,
2013-01-06 23:45:00,48.4,43.0,30.09,East,90,1.3,2.2,82,0.00,,,0.00,,2013-01-06 22:45:00,
2013-01-06 23:50:00,48.4,43.0,30.09,South,180,1.3,1.3,82,0.00,,,0.00,,2013-01-06 22:50:00,
2013-01-06 23:55:00,48.4,43.0,30.09,East,90,0.0,0.0,82,0.00,,,0.00,,2013-01-06 22:55:00,